Time,TemperatureF,DewpointF,PressureIn,WindDirection,WindDirectionDegrees,WindSpeedMPH,WindSpeedGustMPH,Humidity,HourlyPrecipIn,Conditions,Clouds,dailyrainin,SoftwareType,DateUTC
2013-01-18 00:04:00,63.0,-99.9,30.08,NW,323,9.0,14.0,-999,-99.99,,,-99.99,,2013-01-18 05:04:00,
2013-01-18 00:12:00,63.0,-99.9,30.08,NW,324,11.0,17.0,-999,-99.99,,,-99.99,,2013-01-18 05:12:00,
2013-01-18 00:22:00,63.0,-99.9,30.08,NW,326,8.0,12.0,-999,-99.99,,,-99.99,,2013-01-18 05:22:00,
2013-01-18 00:33:00,62.0,-99.9,30.09,NW,317,6.0,15.0,-999,-99.99,,,-99.99,,2013-01-18 05:33:00,
2013-01-18 00:43:00,62.0,-99.9,30.09,NW,325,7.0,15.0,-999,-99.99,,,-99.99,,2013-01-18 05:43:00,
2013-01-18 00:53:00,62.0,-99.9,30.09,NW,316,8.0,14.0,-999,-99.99,,,-99.99,,2013-01-18 05:53:00,
2013-01-18 01:03:00,62.0,-99.9,30.09,NNW,330,8.0,17.0,-999,-99.99,,,-99.99,,2013-01-18 06:03:00,
2013-01-18 01:12:00,62.0,-99.9,30.09,NNW,337,7.0,14.0,-999,-99.99,,,-99.99,,2013-01-18 06:12:00,
2013-01-18 01:23:00,62.0,-99.9,30.09,NNW,335,8.0,15.0,-999,-99.99,,,-99.99,,2013-01-18 06:23:00,
2013-01-18 01:33:00,62.0,-99.9,30.09,NW,322,6.0,13.0,-999,-99.99,,,-99.99,,2013-01-18 06:33:00,
2013-01-18 01:43:00,62.0,-99.9,30.09,NNW,328,10.0,14.0,-999,-99.99,,,-99.99,,2013-01-18 06:43:00,
2013-01-18 01:53:00,61.0,-99.9,30.09,NNW,329,10.0,13.0,-999,-99.99,,,-99.99,,2013-01-18 06:53:00,
2013-01-18 02:02:00,61.0,-99.9,30.09,NW,319,7.0,15.0,-999,-99.99,,,-99.99,,2013-01-18 07:02:00,
2013-01-18 02:12:00,61.0,-99.9,30.09,NW,317,6.0,15.0,-999,-99.99,,,-99.99,,2013-01-18 07:12:00,
2013-01-18 02:22:00,61.0,-99.9,30.09,NW,316,9.0,15.0,-999,-99.99,,,-99.99,,2013-01-18 07:22:00,
2013-01-18 02:33:00,61.0,-99.9,30.09,NW,309,7.0,15.0,-999,-99.99,,,-99.99,,2013-01-18 07:33:00,
2013-01-18 02:43:00,61.0,-99.9,30.09,NW,325,7.0,15.0,-999,-99.99,,,-99.99,,2013-01-18 07:43:00,
2013-01-18 02:52:00,60.0,-99.9,30.09,NW,325,11.0,15.0,-999,-99.99,,,-99.99,,2013-01-18 07:52:00,
2013-01-18 03:02:00,61.0,-99.9,30.09,NW,323,5.0,13.0,-999,-99.99,,,-99.99,,2013-01-18 08:02:00,
2013-01-18 03:12:00,60.0,-99.9,30.09,NW,314,8.0,17.0,-999,-99.99,,,-99.99,,2013-01-18 08:12:00,
2013-01-18 03:22:00,60.0,-99.9,30.09,NW,324,10.0,15.0,-999,-99.99,,,-99.99,,2013-01-18 08:22:00,
2013-01-18 03:33:00,60.0,-99.9,30.09,NW,316,11.0,16.0,-999,-99.99,,,-99.99,,2013-01-18 08:33:00,
2013-01-18 03:43:00,60.0,-99.9,30.10,NW,323,6.0,15.0,-999,-99.99,,,-99.99,,2013-01-18 08:43:00,
2013-01-18 03:53:00,60.0,-99.9,30.10,NNW,331,7.0,13.0,-999,-99.99,,,-99.99,,2013-01-18 08:53:00,
2013-01-18 04:03:00,60.0,-99.9,30.10,NW,314,10.0,17.0,-999,-99.99,,,-99.99,,2013-01-18 09:03:00,
2013-01-18 04:12:00,60.0,-99.9,30.10,NNW,327,9.0,16.0,-999,-99.99,,,-99.99,,2013-01-18 09:12:00,
2013-01-18 04:22:00,60.0,-99.9,30.10,NW,324,8.0,16.0,-999,-99.99,,,-99.99,,2013-01-18 09:22:00,
2013-01-18 04:33:00,59.0,-99.9,30.10,NW,322,7.0,14.0,-999,-99.99,,,-99.99,,2013-01-18 09:33:00,
2013-01-18 04:43:00,59.0,-99.9,30.11,NNW,334,6.0,13.0,-999,-99.99,,,-99.99,,2013-01-18 09:43:00,
2013-01-18 04:53:00,59.0,-99.9,30.11,NW,320,7.0,15.0,-999,-99.99,,,-99.99,,2013-01-18 09:53:00,
2013-01-18 05:03:00,59.0,-99.9,30.11,NW,322,9.0,14.0,-999,-99.99,,,-99.99,,2013-01-18 10:03:00,
2013-01-18 05:12:00,59.0,-99.9,30.11,NW,322,9.0,15.0,-999,-99.99,,,-99.99,,2013-01-18 10:12:00,
2013-01-18 05:22:00,58.0,-99.9,30.11,NW,321,9.0,17.0,-999,-99.99,,,-99.99,,2013-01-18 10:22:00,
2013-01-18 05:33:00,58.0,-99.9,30.12,NW,324,9.0,12.0,-999,-99.99,,,-99.99,,2013-01-18 10:33:00,
2013-01-18 05:43:00,58.0,-99.9,30.12,NW,318,7.0,12.0,-999,-99.99,,,-99.99,,2013-01-18 10:43:00,
2013-01-18 05:53:00,58.0,-99.9,30.12,NNW,327,8.0,13.0,-999,-99.99,,,-99.99,,2013-01-18 10:53:00,
2013-01-18 06:03:00,58.0,-99.9,30.13,NNW,339,10.0,16.0,-999,-99.99,,,-99.99,,2013-01-18 11:03:00,
2013-01-18 06:12:00,58.0,-99.9,30.13,NW,323,5.0,19.0,-999,-99.99,,,-99.99,,2013-01-18 11:12:00,
2013-01-18 06:23:00,58.0,-99.9,30.14,NW,308,7.0,15.0,-999,-99.99,,,-99.99,,2013-01-18 11:23:00,
2013-01-18 06:33:00,58.0,-99.9,30.14,NW,317,8.0,14.0,-999,-99.99,,,-99.99,,2013-01-18 11:33:00,
2013-01-18 06:43:00,58.0,-99.9,30.14,NW,310,6.0,13.0,-999,-99.99,,,-99.99,,2013-01-18 11:43:00,
2013-01-18 06:53:00,57.0,-99.9,30.15,NW,319,8.0,16.0,-999,-99.99,,,-99.99,,2013-01-18 11:53:00,
2013-01-18 07:03:00,57.0,-99.9,30.15,NNW,337,7.0,13.0,-999,-99.99,,,-99.99,,2013-01-18 12:03:00,
2013-01-18 07:12:00,57.0,-99.9,30.15,NNW,342,7.0,11.0,-999,-99.99,,,-99.99,,2013-01-18 12:12:00,
2013-01-18 07:23:00,56.0,-99.9,30.16,NNW,335,9.0,14.0,-999,-99.99,,,-99.99,,2013-01-18 12:23:00,
2013-01-18 07:33:00,56.0,-99.9,30.16,NNW,332,9.0,15.0,-999,-99.99,,,-99.99,,2013-01-18 12:33:00,
2013-01-18 07:43:00,56.0,-99.9,30.16,NNW,343,8.0,12.0,-999,-99.99,,,-99.99,,2013-01-18 12:43:00,
2013-01-18 07:53:00,57.0,-99.9,30.17,NNW,340,5.0,11.0,-999,-99.99,,,-99.99,,2013-01-18 12:53:00,
2013-01-18 08:03:00,56.0,-99.9,30.17,NNW,334,11.0,14.0,-999,-99.99,,,-99.99,,2013-01-18 13:03:00,
2013-01-18 08:12:00,56.0,-99.9,30.18,NNW,342,8.0,15.0,-999,-99.99,,,-99.99,,2013-01-18 13:12:00,
2013-01-18 08:23:00,56.0,-99.9,30.18,NNW,335,8.0,13.0,-999,-99.99,,,-99.99,,2013-01-18 13:23:00,
2013-01-18 08:34:00,56.0,-99.9,30.19,NNW,338,10.0,16.0,-999,-99.99,,,-99.99,,2013-01-18 13:34:00,
2013-01-18 08:43:00,56.0,-99.9,30.19,NNW,339,8.0,14.0,-999,-99.99,,,-99.99,,2013-01-18 13:43:00,
2013-01-18 08:53:00,57.0,-99.9,30.20,NNW,347,8.0,13.0,-999,-99.99,,,-99.99,,2013-01-18 13:53:00,
2013-01-18 09:03:00,57.0,-99.9,30.20,NNW,342,8.0,13.0,-999,-99.99,,,-99.99,,2013-01-18 14:03:00,
2013-01-18 09:13:00,57.0,-99.9,30.20,North,-999,7.0,14.0,-999,-99.99,,,-99.99,,2013-01-18 14:13:00,
2013-01-18 09:23:00,57.0,-99.9,30.21,North,353,8.0,12.0,-999,-99.99,,,-99.99,,2013-01-18 14:23:00,
2013-01-18 09:34:00,56.0,-99.9,30.21,NNW,340,8.0,13.0,-999,-99.99,,,-99.99,,2013-01-18 14:34:00,
2013-01-18 09:43:00,56.0,-99.9,30.22,NNW,334,8.0,12.0,-999,-99.99,,,-99.99,,2013-01-18 14:43:00,
2013-01-18 09:53:00,56.0,-99.9,30.22,NNW,345,6.0,11.0,-999,-99.99,,,-99.99,,2013-01-18 14:53:00,
2013-01-18 10:03:00,56.0,-99.9,30.22,North,355,5.0,12.0,-999,-99.99,,,-99.99,,2013-01-18 15:03:00,
2013-01-18 10:13:00,56.0,-99.9,30.23,NNW,337,8.0,11.0,-999,-99.99,,,-99.99,,2013-01-18 15:13:00,
2013-01-18 10:23:00,57.0,-99.9,30.23,NNW,328,3.0,7.0,-999,-99.99,,,-99.99,,2013-01-18 15:23:00,
2013-01-18 10:34:00,56.0,-99.9,30.23,NNW,330,4.0,10.0,-999,-99.99,,,-99.99,,2013-01-18 15:34:00,
2013-01-18 10:44:00,58.0,-99.9,30.23,NNW,331,2.0,7.0,-999,-99.99,,,-99.99,,2013-01-18 15:44:00,
2013-01-18 10:54:00,58.0,-99.9,30.23,North,352,7.0,12.0,-999,-99.99,,,-99.99,,2013-01-18 15:54:00,
2013-01-18 11:03:00,58.0,-99.9,30.23,NNW,333,5.0,10.0,-999,-99.99,,,-99.99,,2013-01-18 16:03:00,
2013-01-18 11:13:00,59.0,-99.9,30.22,NNW,336,7.0,12.0,-999,-99.99,,,-99.99,,2013-01-18 16:13:00,
2013-01-18 11:23:00,59.0,-99.9,30.22,North,3,6.0,11.0,-999,-99.99,,,-99.99,,2013-01-18 16:23:00,
2013-01-18 11:33:00,58.0,-99.9,30.21,NNE,22,5.0,9.0,-999,-99.99,,,-99.99,,2013-01-18 16:33:00,
2013-01-18 11:43:00,59.0,-99.9,30.21,NE,34,3.0,8.0,-999,-99.99,,,-99.99,,2013-01-18 16:43:00,
2013-01-18 11:53:00,59.0,-99.9,30.20,NNE,15,6.0,10.0,-999,-99.99,,,-99.99,,2013-01-18 16:53:00,
2013-01-18 12:03:00,59.0,-99.9,30.20,NNW,341,4.0,8.0,-999,-99.99,,,-99.99,,2013-01-18 17:03:00,
2013-01-18 12:13:00,59.0,-99.9,30.20,NNW,336,5.0,9.0,-999,-99.99,,,-99.99,,2013-01-18 17:13:00,
2013-01-18 12:23:00,59.0,-99.9,30.19,NNE,21,4.0,7.0,-999,-99.99,,,-99.99,,2013-01-18 17:23:00,
2013-01-18 12:34:00,60.0,-99.9,30.19,NNW,342,2.0,6.0,-999,-99.99,,,-99.99,,2013-01-18 17:34:00,
2013-01-18 12:43:00,60.0,-99.9,30.18,NW,323,2.0,6.0,-999,-99.99,,,-99.99,,2013-01-18 17:43:00,
2013-01-18 12:53:00,59.0,-99.9,30.18,NNW,347,5.0,10.0,-999,-99.99,,,-99.99,,2013-01-18 17:53:00,
2013-01-18 13:03:00,60.0,-99.9,30.17,NNW,341,5.0,8.0,-999,-99.99,,,-99.99,,2013-01-18 18:03:00,
2013-01-18 13:13:00,60.0,-99.9,30.17,NNW,348,4.0,8.0,-999,-99.99,,,-99.99,,2013-01-18 18:13:00,
2013-01-18 13:24:00,60.0,-99.9,30.16,North,6,4.0,9.0,-999,-99.99,,,-99.99,,2013-01-18 18:24:00,
2013-01-18 13:34:00,60.0,-99.9,30.16,NNE,19,2.0,7.0,-999,-99.99,,,-99.99,,2013-01-18 18:34:00,
2013-01-18 13:44:00,60.0,-99.9,30.16,NE,51,4.0,7.0,-999,-99.99,,,-99.99,,2013-01-18 18:44:00,
2013-01-18 13:53:00,60.0,-99.9,30.16,NNE,15,4.0,8.0,-999,-99.99,,,-99.99,,2013-01-18 18:53:00,
2013-01-18 14:03:00,61.0,-99.9,30.15,NNE,20,4.0,7.0,-999,-99.99,,,-99.99,,2013-01-18 19:03:00,
2013-01-18 14:13:00,61.0,-99.9,30.15,North,5,5.0,6.0,-999,-99.99,,,-99.99,,2013-01-18 19:13:00,
2013-01-18 14:23:00,61.0,-99.9,30.14,NE,36,5.0,7.0,-999,-99.99,,,-99.99,,2013-01-18 19:23:00,
2013-01-18 14:33:00,61.0,-99.9,30.14,North,358,5.0,8.0,-999,-99.99,,,-99.99,,2013-01-18 19:33:00,
2013-01-18 14:43:00,62.0,-99.9,30.14,NNE,16,3.0,8.0,-999,-99.99,,,-99.99,,2013-01-18 19:43:00,
2013-01-18 14:53:00,62.0,-99.9,30.14,NNE,33,4.0,6.0,-999,-99.99,,,-99.99,,2013-01-18 19:53:00,
2013-01-18 15:03:00,63.0,-99.9,30.14,NNE,24,4.0,6.0,-999,-99.99,,,-99.99,,2013-01-18 20:03:00,
2013-01-18 15:13:00,63.0,-99.9,30.14,ENE,57,3.0,7.0,-999,-99.99,,,-99.99,,2013-01-18 20:13:00,
2013-01-18 15:23:00,63.0,-99.9,30.14,NNE,32,3.0,4.0,-999,-99.99,,,-99.99,,2013-01-18 20:23:00,
2013-01-18 15:33:00,63.0,-99.9,30.14,NE,52,3.0,4.0,-999,-99.99,,,-99.99,,2013-01-18 20:33:00,
2013-01-18 15:43:00,63.0,-99.9,30.14,NNE,25,2.0,4.0,-999,-99.99,,,-99.99,,2013-01-18 20:43:00,
2013-01-18 15:53:00,64.0,-99.9,30.14,NE,37,3.0,5.0,-999,-99.99,,,-99.99,,2013-01-18 20:53:00,
2013-01-18 16:03:00,64.0,-99.9,30.14,NNE,22,3.0,5.0,-999,-99.99,,,-99.99,,2013-01-18 21:03:00,
2013-01-18 16:13:00,64.0,-99.9,30.14,NNE,32,4.0,5.0,-999,-99.99,,,-99.99,,2013-01-18 21:13:00,
2013-01-18 16:23:00,64.0,-99.9,30.14,NNE,25,3.0,6.0,-999,-99.99,,,-99.99,,2013-01-18 21:23:00,
2013-01-18 16:33:00,64.0,-99.9,30.14,NNE,30,2.0,5.0,-999,-99.99,,,-99.99,,2013-01-18 21:33:00,
2013-01-18 16:43:00,64.0,-99.9,30.14,NE,36,3.0,4.0,-999,-99.99,,,-99.99,,2013-01-18 21:43:00,
2013-01-18 16:53:00,65.0,-99.9,30.14,NE,37,2.0,6.0,-999,-99.99,,,-99.99,,2013-01-18 21:53:00,
2013-01-18 17:03:00,65.0,-99.9,30.14,North,-999,1.0,2.0,-999,-99.99,,,-99.99,,2013-01-18 22:03:00,
2013-01-18 17:12:00,65.0,-99.9,30.14,East,88,1.0,2.0,-999,-99.99,,,-99.99,,2013-01-18 22:12:00,
2013-01-18 17:23:00,65.0,-99.9,30.15,NE,40,2.0,4.0,-999,-99.99,,,-99.99,,2013-01-18 22:23:00,
2013-01-18 17:33:00,65.0,-99.9,30.15,ENE,57,3.0,4.0,-999,-99.99,,,-99.99,,2013-01-18 22:33:00,
2013-01-18 17:43:00,65.0,-99.9,30.15,ENE,57,3.0,4.0,-999,-99.99,,,-99.99,,2013-01-18 22:43:00,
2013-01-18 17:53:00,65.0,-99.9,30.16,North,350,0.0,2.0,-999,-99.99,,,-99.99,,2013-01-18 22:53:00,
2013-01-18 18:03:00,65.0,-99.9,30.16,NW,315,0.0,1.0,-999,-99.99,,,-99.99,,2013-01-18 23:03:00,
2013-01-18 18:12:00,65.0,-99.9,30.16,West,272,-999.0,1.0,-999,-99.99,,,-99.99,,2013-01-18 23:12:00,
2013-01-18 18:23:00,65.0,-99.9,30.16,WNW,289,1.0,2.0,-999,-99.99,,,-99.99,,2013-01-18 23:23:00,
2013-01-18 18:33:00,65.0,-99.9,30.16,West,279,1.0,1.0,-999,-99.99,,,-99.99,,2013-01-18 23:33:00,
2013-01-18 18:43:00,65.0,-99.9,30.16,WSW,238,1.0,2.0,-999,-99.99,,,-99.99,,2013-01-18 23:43:00,
2013-01-18 18:53:00,65.0,-99.9,30.16,WSW,237,2.0,3.0,-999,-99.99,,,-99.99,,2013-01-18 23:53:00,
2013-01-18 19:03:00,65.0,-99.9,30.16,West,267,3.0,4.0,-999,-99.99,,,-99.99,,2013-01-19 00:03:00,
2013-01-18 19:13:00,65.0,-99.9,30.16,SSW,203,3.0,4.0,-999,-99.99,,,-99.99,,2013-01-19 00:13:00,
2013-01-18 19:23:00,65.0,-99.9,30.16,South,185,2.0,3.0,-999,-99.99,,,-99.99,,2013-01-19 00:23:00,
2013-01-18 19:33:00,65.0,-99.9,30.16,SSE,168,2.0,3.0,-999,-99.99,,,-99.99,,2013-01-19 00:33:00,
2013-01-18 19:43:00,65.0,-99.9,30.16,South,185,2.0,5.0,-999,-99.99,,,-99.99,,2013-01-19 00:43:00,
2013-01-18 19:53:00,66.0,-99.9,30.16,South,169,2.0,4.0,-999,-99.99,,,-99.99,,2013-01-19 00:53:00,
2013-01-18 20:03:00,70.0,-99.9,30.16,East,79,13.0,17.0,-999,-99.99,,,-99.99,,2013-01-19 01:03:00,
2013-01-18 20:13:00,71.0,-99.9,30.16,ENE,67,13.0,19.0,-999,-99.99,,,-99.99,,2013-01-19 01:13:00,
2013-01-18 20:23:00,70.0,-99.9,30.16,ENE,59,10.0,17.0,-999,-99.99,,,-99.99,,2013-01-19 01:23:00,
2013-01-18 20:33:00,71.0,-99.9,30.16,ENE,78,14.0,19.0,-999,-99.99,,,-99.99,,2013-01-19 01:33:00,
2013-01-18 20:43:00,71.0,-99.9,30.16,East,79,13.0,17.0,-999,-99.99,,,-99.99,,2013-01-19 01:43:00,
2013-01-18 20:53:00,70.0,-99.9,30.16,ENE,62,16.0,22.0,-999,-99.99,,,-99.99,,2013-01-19 01:53:00,
2013-01-18 21:03:00,70.0,-99.9,30.16,ENE,64,17.0,23.0,-999,-99.99,,,-99.99,,2013-01-19 02:03:00,
2013-01-18 21:12:00,69.0,-99.9,30.16,ENE,70,19.0,23.0,-999,-99.99,,,-99.99,,2013-01-19 02:12:00,
2013-01-18 21:23:00,70.0,-99.9,30.17,ENE,69,13.0,19.0,-999,-99.99,,,-99.99,,2013-01-19 02:23:00,
2013-01-18 21:33:00,70.0,-99.9,30.17,ENE,74,15.0,19.0,-999,-99.99,,,-99.99,,2013-01-19 02:33:00,
2013-01-18 21:43:00,70.0,-99.9,30.17,ENE,78,14.0,17.0,-999,-99.99,,,-99.99,,2013-01-19 02:43:00,
2013-01-18 21:53:00,71.0,-99.9,30.17,ENE,73,11.0,15.0,-999,-99.99,,,-99.99,,2013-01-19 02:53:00,
2013-01-18 22:03:00,71.0,-99.9,30.17,ENE,71,14.0,18.0,-999,-99.99,,,-99.99,,2013-01-19 03:03:00,
2013-01-18 22:12:00,71.0,-99.9,30.17,ENE,69,13.0,18.0,-999,-99.99,,,-99.99,,2013-01-19 03:12:00,
2013-01-18 22:23:00,71.0,-99.9,30.17,ENE,72,15.0,18.0,-999,-99.99,,,-99.99,,2013-01-19 03:23:00,
2013-01-18 22:33:00,71.0,-99.9,30.17,ENE,72,15.0,18.0,-999,-99.99,,,-99.99,,2013-01-19 03:33:00,
2013-01-18 22:44:00,71.0,-99.9,30.17,ENE,60,11.0,19.0,-999,-99.99,,,-99.99,,2013-01-19 03:44:00,
2013-01-18 22:53:00,71.0,-99.9,30.17,ENE,70,14.0,19.0,-999,-99.99,,,-99.99,,2013-01-19 03:53:00,
2013-01-18 23:03:00,71.0,-99.9,30.16,ENE,68,12.0,17.0,-999,-99.99,,,-99.99,,2013-01-19 04:03:00,
2013-01-18 23:12:00,71.0,-99.9,30.16,East,87,11.0,16.0,-999,-99.99,,,-99.99,,2013-01-19 04:12:00,
2013-01-18 23:22:00,70.0,-99.9,30.16,ENE,68,10.0,18.0,-999,-99.99,,,-99.99,,2013-01-19 04:22:00,
2013-01-18 23:33:00,71.0,-99.9,30.16,East,94,14.0,18.0,-999,-99.99,,,-99.99,,2013-01-19 04:33:00,
2013-01-18 23:43:00,71.0,-99.9,30.16,East,90,14.0,17.0,-999,-99.99,,,-99.99,,2013-01-19 04:43:00,
2013-01-18 23:53:00,71.0,-99.9,30.15,East,92,13.0,15.0,-999,-99.99,,,-99.99,,2013-01-19 04:53:00,